EHI
0 0 0 0 0 0 0 0 0 0 0 0 0 1 6 13 20 28 37 43 49 50 47 49 51 47 43 41 34 25 22 23 25 24 24 22 17 11 7 6 6 7 10 11
0 0 0 0 0 0 0 0 0 0 0 0 0 0 3 9 17 25 34 42 47 49 51 55 59 54 47 42 35 25 19 18 19 18 17 17 13 7 4 4 4 5 7 9
0 0 0 0 0 0 0 0 0 0 0 0 0 0 1 4 12 22 33 44 50 53 57 60 61 55 46 39 31 21 15 14 14 12 10 8 6 3 1 1 1 2 3 5
0 0 0 0 0 0 0 0 0 0 0 0 0 0 0 2 10 22 37 49 53 54 56 55 50 43 35 27 22 17 14 14 14 11 8 6 3 1 0 0 0 0 1 1
0 0 0 0 0 0 0 0 0 0 0 0 0 0 0 2 8 21 36 44 46 44 43 40 33 27 19 12 11 13 15 17 17 14 14 14 9 4 2 1 1 1 0 1
0 0 0 0 0 0 0 0 0 0 0 0 0 0 0 2 6 13 23 28 28 27 24 21 17 12 7 4 5 8 14 21 22 21 24 25 20 15 11 7 4 3 1 1
0 0 0 0 0 0 0 0 0 0 0 0 0 0 0 1 2 6 10 12 12 12 10 8 6 4 2 2 4 9 18 28 32 34 37 38 33 27 22 16 11 6 3 1
0 0 0 0 0 0 0 0 0 0 0 0 0 0 0 0 0 1 2 3 4 4 4 3 3 3 2 3 6 13 24 34 39 43 47 48 43 34 29 26 21 13 7 4
0 0 0 0 0 0 0 0 0 0 0 0 0 0 0 0 0 0 0 1 1 1 1 1 1 2 3 3 5 11 20 27 31 34 39 41 40 36 33 33 31 25 20 15
0 0 0 0 0 0 0 0 0 0 0 0 0 0 0 0 0 0 0 0 0 0 0 0 0 1 2 2 3 5 9 12 14 17 19 21 25 30 31 32 35 35 32 28
0 0 0 0 0 0 0 0 0 0 0 0 0 0 0 1 0 0 0 0 0 0 0 0 0 1 1 1 1 1 2 3 5 6 8 10 13 18 20 23 28 33 34 33
0 0 0 0 0 0 0 0 0 0 0 0 0 0 0 0 0 0 0 0 0 0 0 0 0 0 0 0 0 0 0 1 1 2 3 6 8 10 11 14 19 24 27 27
0 0 0 0 0 0 0 0 0 0 0 0 0 0 0 0 0 0 0 0 0 0 0 0 0 0 0 0 0 0 0 0 0 0 1 2 4 4 6 9 13 16 18 18
0 0 0 0 0 0 0 0 0 0 0 0 0 0 0 0 0 0 0 0 0 0 0 0 0 0 0 0 0 0 0 0 0 0 0 0 1 1 2 5 8 10 10 10
0 0 0 0 0 0 0 0 0 0 0 0 0 0 0 0 0 0 0 0 0 0 0 0 0 0 0 0 0 0 0 0 0 0 0 0 0 0 0 1 3 4 4 4
0 0 0 0 0 0 0 0 0 0 0 0 0 0 0 0 0 0 0 0 0 0 0 0 0 0 0 0 0 0 0 0 0 0 0 0 0 0 0 0 0 0 0 0
0 0 0 0 0 0 0 0 0 0 0 0 0 0 0 0 0 0 0 0 0 0 0 0 0 0 0 0 0 0 0 0 0 0 0 0 0 0 0 0 0 0 0 0
0 0 0 0 0 0 0 0 0 0 0 0 0 0 0 0 0 0 0 0 0 0 0 0 0 0 0 0 0 0 0 0 0 0 0 0 0 0 0 0 0 0 0 0
0 0 0 0 0 0 0 0 0 0 0 0 0 0 0 0 0 0 0 0 0 0 0 0 0 0 0 0 0 0 0 0 0 0 0 0 0 0 0 0 0 0 0 0
0 0 0 0 0 0 0 0 0 0 0 0 0 0 0 0 0 0 0 0 0 0 0 0 0 0 0 0 0 0 0 0 0 0 0 0 0 0 0 0 0 0 0 0
0 0 0 0 0 0 0 0 0 0 0 0 0 0 0 0 0 0 0 0 0 0 0 0 0 0 0 0 0 0 0 0 0 0 0 0 0 0 0 0 0 0 0 0
0 0 0 0 0 0 0 0 0 0 0 0 0 0 0 0 0 0 0 0 0 0 0 0 0 0 0 0 0 0 0 0 0 0 0 0 0 0 0 0 0 0 0 0
0 0 0 0 0 0 0 0 0 0 0 0 0 0 0 0 0 0 0 0 0 0 0 0 0 0 0 0 0 0 0 0 0 0 0 0 0 0 0 0 0 0 0 0
0 0 0 0 0 0 0 0 0 0 0 0 0 0 0 0 0 0 0 0 0 0 0 0 0 0 0 0 0 0 0 0 0 0 0 0 0 0 0 0 0 0 0 0
0 0 0 0 0 0 0 0 0 0 0 0 0 0 0 0 0 0 0 0 0 0 0 0 0 0 0 0 0 0 0 0 0 0 0 0 0 0 0 0 0 0 0 0
0 0 0 0 0 0 0 0 0 0 0 0 0 0 0 0 0 0 0 0 0 0 0 0 0 0 0 0 0 0 0 0 0 0 0 0 0 0 0 0 0 0 0 0
Wind_Speed
3 5 1 1 1 2 2 5 4 1 2 3 1 1 2 2 1 2 2 3 4 4 5 5 6 6 7 7 7 6 5 5 4 2 3 3 3 4 4 4 5 7 7 8
6 2 3 1 2 4 5 5 4 3 1 4 3 3 2 1 1 2 1 2 3 5 6 6 6 7 7 7 6 6 6 5 4 3 2 2 3 4 4 4 4 6 6 7
2 6 2 3 4 4 3 3 2 4 2 6 6 8 7 4 2 1 1 1 3 4 5 6 6 5 5 5 4 4 3 4 4 3 3 2 3 4 3 3 3 4 6 7
2 3 1 2 1 4 2 2 4 6 9 6 4 10 5 4 3 2 2 2 3 3 3 4 4 3 3 2 2 1 2 3 3 4 4 4 4 4 4 4 4 5 6 7
1 1 3 2 2 4 3 2 5 8 10 10 7 10 3 5 2 4 4 3 3 3 3 3 3 3 3 2 1 1 1 2 3 4 4 5 6 4 4 4 5 6 6 6
2 2 3 3 1 2 2 5 7 9 9 9 2 7 3 5 5 5 5 5 5 5 4 4 5 5 4 4 3 3 3 3 4 5 5 6 7 7 7 7 7 6 5 5
2 3 2 3 6 4 6 9 7 6 6 3 2 7 3 7 6 7 7 8 7 6 6 6 7 7 7 7 6 5 5 5 5 5 6 6 7 8 9 8 7 7 7 6
3 1 2 3 6 8 7 9 9 8 7 5 5 6 7 8 7 7 8 9 9 10 10 10 10 9 9 9 9 8 7 7 7 7 7 7 8 8 7 7 8 8 7 7
4 3 1 1 5 8 8 8 8 10 12 11 7 3 8 7 7 8 9 10 11 11 11 11 11 11 11 10 10 10 9 9 8 8 8 8 8 9 9 9 9 9 7 7
6 8 5 1 5 2 6 7 6 8 9 10 7 7 4 8 5 6 8 9 10 10 10 11 10 11 10 10 10 10 10 9 9 10 9 8 8 9 9 10 10 10 9 8
7 8 8 5 5 8 4 5 6 7 8 11 12 5 9 7 5 5 6 7 8 9 9 10 9 10 10 10 10 10 10 10 10 10 10 10 10 10 10 10 10 10 10 10
4 8 10 9 1 2 5 6 6 7 8 9 12 2 9 7 5 4 5 6 7 8 9 9 9 10 10 10 10 10 10 10 11 11 11 11 11 11 11 11 11 11 11 11
3 7 11 8 5 6 5 5 7 8 9 11 13 2 8 5 4 4 6 7 8 9 9 9 9 10 10 10 10 10 10 10 11 11 11 11 11 12 12 13 12 11 12 11
5 9 12 14 12 9 8 7 6 9 11 12 11 4 5 2 3 5 7 9 10 10 10 10 10 10 10 10 10 10 10 10 10 10 11 11 11 12 12 13 12 12 11 12
5 10 11 12 11 8 7 7 7 8 9 10 10 5 5 5 6 8 10 11 12 11 11 10 10 10 10 11 11 11 12 11 11 12 12 12 12 12 12 13 13 12 12 12
4 8 10 11 7 4 1 5 5 4 6 7 6 2 5 6 7 9 11 12 13 12 12 12 13 13 14 14 14 13 13 13 13 13 14 13 13 13 13 13 13 13 12 11
4 6 8 8 2 7 2 7 8 6 5 7 7 5 7 11 12 12 13 14 13 13 14 16 16 16 15 15 15 15 15 15 14 15 15 14 14 14 14 14 14 13 13 12
5 6 6 8 7 6 8 6 7 6 4 4 4 6 10 13 14 15 15 13 13 16 18 18 18 18 17 17 16 16 16 16 16 16 15 15 15 15 15 14 14 13 12 11
4 5 6 6 9 3 6 6 8 9 9 2 6 11 14 15 18 16 10 13 17 19 19 18 18 19 18 18 17 17 17 17 16 16 16 15 15 16 16 15 15 13 12 11
1 3 6 6 10 5 6 7 7 8 6 2 11 16 17 19 17 14 17 20 20 20 18 19 19 19 19 18 17 18 18 18 17 16 16 15 15 16 16 16 15 13 12 12
6 5 6 8 7 4 5 7 8 9 9 13 16 17 18 19 18 20 21 21 20 20 21 20 20 18 18 18 18 19 19 18 17 17 16 16 16 16 17 15 14 13 12 12
7 6 5 6 6 4 6 8 7 10 13 15 17 18 20 21 22 22 22 22 21 21 22 21 19 19 18 17 18 19 19 18 18 17 17 17 16 16 14 14 13 13 12 12
4 6 5 5 5 4 6 7 9 11 14 17 18 20 21 23 23 23 22 22 22 22 22 21 21 21 19 18 18 19 19 18 18 18 17 17 17 15 15 15 14 12 11 10
3 1 4 4 3 6 9 9 11 13 16 19 20 21 22 24 24 24 23 22 22 22 21 20 21 21 20 19 19 19 19 18 18 18 17 16 15 15 14 12 11 11 10 9
2 1 4 7 6 10 8 12 15 17 19 20 21 22 23 24 25 25 23 23 22 21 21 20 20 20 22 20 19 19 18 18 18 17 16 15 14 13 12 12 11 11 11 8
1 3 6 7 9 11 15 15 19 19 20 21 23 24 23 23 25 25 23 22 22 22 21 21 21 22 22 21 20 20 18 17 16 15 14 12 11 10 11 11 11 11 13 10
Wind_Direction
236 248 233 74 279 330 285 258 247 73 30 299 256 214 96 68 123 138 144 155 152 140 131 139 146 153 156 158 164 171 176 179 198 208 238 251 267 280 284 284 295 293 292 292
218 140 51 17 200 220 223 234 224 175 75 300 276 246 160 92 43 26 73 167 158 150 142 139 140 143 144 145 154 162 174 175 195 196 235 274 304 300 310 307 309 302 303 300
28 58 72 187 182 210 216 271 301 303 285 234 261 237 192 158 137 108 132 147 143 145 143 136 132 129 131 134 145 152 162 177 198 207 225 239 246 257 266 291 295 310 310 303
80 79 219 216 162 282 257 18 305 290 278 274 276 276 190 163 158 114 102 119 118 118 124 124 124 111 105 106 111 131 186 204 210 221 235 255 276 294 316 305 311 307 298 299
69 1 287 291 3 299 358 353 286 287 281 274 243 266 202 138 125 63 53 51 71 69 56 54 49 36 19 4 339 282 255 256 247 250 247 254 265 281 290 296 293 291 293 291
300 261 292 320 314 279 193 237 244 248 259 255 244 280 239 77 24 12 37 42 41 38 35 28 15 10 357 340 323 308 293 284 276 267 266 267 279 283 289 288 294 288 292 292
240 216 188 259 262 212 244 276 275 258 245 257 129 266 65 70 43 26 29 37 37 37 32 28 19 12 3 354 346 331 316 303 296 282 276 275 275 274 270 276 282 286 292 293
284 271 48 329 314 309 295 290 286 297 298 299 229 256 99 91 74 61 54 49 43 39 35 29 24 19 15 10 4 354 344 332 326 313 302 290 279 271 271 270 280 280 284 292
300 318 66 314 307 298 290 279 310 286 277 278 274 144 132 128 90 69 60 54 46 40 38 32 27 21 17 13 11 6 2 355 348 335 321 303 292 284 283 280 268 269 270 279
297 297 304 308 241 202 301 305 265 269 286 286 274 254 191 144 101 71 54 47 43 37 35 31 26 21 16 12 10 8 6 1 355 347 336 324 312 300 287 278 276 276 275 271
280 286 290 275 295 320 270 249 281 285 289 293 296 329 63 85 69 51 49 39 31 24 23 21 18 14 10 7 6 4 1 357 352 347 339 332 325 317 305 289 282 277 273 271
290 289 295 297 359 277 282 297 287 290 295 284 284 337 86 86 79 46 31 24 15 5 3 4 3 1 358 357 355 353 350 349 346 342 336 334 330 324 315 307 298 286 276 269
294 276 284 275 193 194 238 262 279 286 283 279 285 29 105 94 68 34 8 358 352 348 347 346 348 347 345 343 340 338 336 336 334 333 331 331 330 327 320 312 306 295 282 272
278 271 281 295 312 317 298 286 275 277 281 292 301 349 125 72 357 352 348 341 335 334 336 336 335 332 330 325 322 320 319 321 319 319 318 319 319 319 317 313 307 300 290 278
275 273 279 286 295 296 302 312 308 297 305 305 324 351 47 22 345 336 332 327 321 318 318 317 313 313 312 311 310 308 309 310 310 309 309 309 311 313 313 312 308 302 295 283
274 286 289 281 284 281 319 7 342 337 330 320 313 33 43 341 323 317 313 307 302 302 303 305 307 309 309 308 305 305 305 305 305 304 304 305 305 306 307 308 307 303 297 291
282 280 286 288 322 239 151 23 357 352 350 332 329 2 338 318 314 311 305 299 300 307 310 309 309 308 306 304 303 301 300 300 299 299 300 301 301 301 303 305 306 303 299 293
309 293 278 294 285 278 71 37 6 342 327 329 317 316 313 306 305 299 289 296 309 313 312 311 310 307 305 304 302 299 298 297 294 294 295 298 298 297 298 298 298 299 298 294
353 309 300 303 301 121 105 30 358 326 303 305 310 315 315 316 307 297 318 328 316 311 309 308 306 305 304 302 302 300 298 295 293 293 295 297 299 296 294 293 294 296 296 293
82 306 302 314 305 328 68 15 336 295 277 49 325 321 320 316 308 316 329 317 308 307 306 305 304 302 300 301 300 297 295 294 293 293 294 296 295 292 289 289 289 290 290 287
328 320 337 323 313 75 43 343 315 295 340 341 323 315 311 310 306 308 309 307 307 305 303 302 300 299 299 299 297 293 292 292 292 292 292 292 290 288 285 282 281 282 282 284
332 333 347 324 317 54 16 334 331 322 320 313 311 311 310 308 305 305 306 306 305 304 303 303 300 297 296 295 293 290 290 292 292 290 288 288 287 285 284 282 278 277 277 278
358 3 345 343 355 10 335 314 310 309 307 310 311 311 309 306 306 307 307 306 305 304 303 302 299 298 297 295 293 291 292 292 290 287 286 286 285 283 279 277 274 271 267 268
124 259 288 283 289 317 313 309 314 314 312 311 310 309 309 308 307 307 306 305 304 303 303 303 302 299 298 298 295 292 292 290 287 285 284 283 281 278 276 273 270 267 264 264
68 247 289 281 314 313 308 323 321 317 312 309 309 309 309 307 306 306 305 305 305 305 304 303 301 298 297 297 295 294 291 289 286 283 281 279 277 277 277 272 267 268 266 262
145 329 321 329 338 315 315 320 316 313 312 312 311 309 308 307 306 306 305 305 305 304 304 303 301 299 298 297 295 293 291 287 284 281 279 278 275 273 270 270 270 254 249 247